• In Moldova, Republic
  • List of Countries
  • For 7 days
  • Water Temperature
  • Satellite Maps
  • Weather Map
  • Weather Widgets
  • user-avatar
    Login

    Hourly Weather Wlora

    Today, 20 January, Friday

    Time Temperature Precipitation Wind Pressure Humidity
    00:00 +3°C° 0.2 mm 5 mps 769 mmHg 78%
    01:00 +3°C° 0.2 mm 5 mps 769 mmHg 78%
    02:00 +3°C° 0.2 mm 5 mps 770 mmHg 78%
    03:00 +3°C° 0.2 mm 5 mps 770 mmHg 78%
    04:00 +3°C° 0.2 mm 5 mps 770 mmHg 78%
    05:00 +3°C° 0.1 mm 5 mps 770 mmHg 78%
    06:00 +3°C° 0.1 mm 5 mps 770 mmHg 77%
    07:00 +2°C° 0.1 mm 5 mps 771 mmHg 77%
    08:00 +5°C° 0 mm 5 mps 771 mmHg 73%
    09:00 +6°C° 0 mm 5 mps 771 mmHg 69%
    10:00 +8°C° 0 mm 5 mps 772 mmHg 66%
    11:00 +10°C° 0 mm 4 mps 771 mmHg 62%
    12:00 +11°C° 0 mm 4 mps 771 mmHg 59%
    13:00 +12°C° 0 mm 4 mps 771 mmHg 55%
    14:00 +11°C° 0 mm 3 mps 771 mmHg 60%
    15:00 +10°C° 0 mm 3 mps 771 mmHg 64%
    16:00 +10°C° 0 mm 3 mps 771 mmHg 69%
    17:00 +9°C° 0 mm 3 mps 771 mmHg 72%
    18:00 +8°C° 0 mm 3 mps 771 mmHg 74%
    19:00 +5°C° 0 mm 3 mps 771 mmHg 77%
    20:00 +5°C° 0 mm 3 mps 772 mmHg 77%
    21:00 +5°C° 0 mm 3 mps 772 mmHg 77%
    22:00 +4°C° 0 mm 4 mps 772 mmHg 77%
    23:00 +4°C° 0 mm 4 mps 772 mmHg 76%

    Tomorrow, 21 January, Saturday

    Time Temperature Precipitation Wind Pressure Humidity
    00:00 +4°C° 0 mm 4 mps 772 mmHg 75%
    01:00 +4°C° 0 mm 4 mps 772 mmHg 74%
    02:00 +4°C° 0 mm 3 mps 772 mmHg 73%
    03:00 +4°C° 0 mm 3 mps 772 mmHg 72%
    04:00 +4°C° 0 mm 3 mps 771 mmHg 72%
    05:00 +3°C° 0 mm 3 mps 771 mmHg 71%
    06:00 +3°C° 0 mm 3 mps 771 mmHg 70%
    07:00 +3°C° 0 mm 3 mps 771 mmHg 70%
    08:00 +5°C° 0 mm 3 mps 771 mmHg 65%
    09:00 +8°C° 0 mm 2 mps 771 mmHg 60%
    10:00 +9°C° 0 mm 2 mps 771 mmHg 56%
    11:00 +10°C° 0 mm 2 mps 771 mmHg 54%
    12:00 +12°C° 0 mm 2 mps 771 mmHg 52%
    13:00 +13°C° 0 mm 2 mps 770 mmHg 50%
    14:00 +12°C° 0 mm 2 mps 770 mmHg 55%
    15:00 +10°C° 0 mm 2 mps 770 mmHg 61%
    16:00 +10°C° 0 mm 2 mps 770 mmHg 67%
    17:00 +9°C° 0 mm 2 mps 770 mmHg 70%
    18:00 +7°C° 0 mm 2 mps 770 mmHg 73%
    19:00 +6°C° 0 mm 2 mps 770 mmHg 76%
    20:00 +6°C° 0 mm 2 mps 771 mmHg 76%
    21:00 +6°C° 0 mm 2 mps 771 mmHg 77%
    22:00 +6°C° 0 mm 2 mps 771 mmHg 77%
    23:00 +4°C° 0 mm 3 mps 771 mmHg 76%

    Day after tomorrow, 22 January, Sunday

    Time Temperature Precipitation Wind Pressure Humidity
    00:00 +4°C° 0 mm 3 mps 771 mmHg 75%
    01:00 +4°C° 0 mm 3 mps 771 mmHg 74%
    02:00 +4°C° 0 mm 3 mps 771 mmHg 73%
    03:00 +4°C° 0 mm 3 mps 771 mmHg 71%
    04:00 +4°C° 0 mm 3 mps 771 mmHg 70%
    05:00 +3°C° 0 mm 3 mps 771 mmHg 69%
    06:00 +3°C° 0 mm 4 mps 771 mmHg 68%
    07:00 +3°C° 0 mm 4 mps 771 mmHg 67%
    08:00 +5°C° 0 mm 4 mps 771 mmHg 63%
    09:00 +7°C° 0 mm 4 mps 771 mmHg 59%
    10:00 +8°C° 0 mm 4 mps 771 mmHg 55%
    11:00 +10°C° 0 mm 4 mps 771 mmHg 52%
    12:00 +11°C° 0 mm 4 mps 771 mmHg 50%
    13:00 +12°C° 0 mm 3 mps 770 mmHg 48%
    14:00 +11°C° 0 mm 3 mps 770 mmHg 53%
    15:00 +11°C° 0 mm 3 mps 770 mmHg 58%
    16:00 +10°C° 0 mm 2 mps 770 mmHg 64%
    17:00 +9°C° 0 mm 3 mps 770 mmHg 67%
    18:00 +8°C° 0 mm 3 mps 770 mmHg 70%
    19:00 +5°C° 0 mm 4 mps 770 mmHg 73%
    20:00 +5°C° 0 mm 4 mps 771 mmHg 72%
    21:00 +5°C° 0 mm 4 mps 771 mmHg 71%
    22:00 +5°C° 0 mm 5 mps 771 mmHg 70%
    23:00 +5°C° 0 mm 5 mps 770 mmHg 70%

    23 January, Monday

    Time Temperature Precipitation Wind Pressure Humidity
    00:00 +3°C° 0 mm 5 mps 770 mmHg 69%
    01:00 +3°C° 0 mm 5 mps 770 mmHg 69%
    02:00 +3°C° 0 mm 5 mps 769 mmHg 69%
    03:00 +3°C° 0 mm 5 mps 769 mmHg 70%
    04:00 +3°C° 0 mm 5 mps 768 mmHg 70%
    05:00 +3°C° 0 mm 5 mps 768 mmHg 70%
    06:00 +3°C° 0 mm 6 mps 768 mmHg 71%
    07:00 +3°C° 0 mm 6 mps 768 mmHg 72%
    08:00 +4°C° 0.1 mm 6 mps 768 mmHg 68%
    09:00 +6°C° 0.1 mm 7 mps 767 mmHg 64%
    10:00 +8°C° 0.1 mm 7 mps 767 mmHg 60%
    11:00 +8°C° 0.5 mm 7 mps 767 mmHg 65%
    12:00 +8°C° 0.5 mm 7 mps 766 mmHg 69%
    13:00 +8°C° 0.5 mm 7 mps 766 mmHg 74%
    14:00 +8°C° 0.8 mm 7 mps 765 mmHg 75%
    15:00 +8°C° 0.8 mm 7 mps 765 mmHg 76%
    16:00 +7°C° 0.8 mm 6 mps 765 mmHg 78%
    17:00 +7°C° 1.8 mm 6 mps 764 mmHg 81%
    18:00 +5°C° 1.8 mm 6 mps 764 mmHg 85%
    19:00 +5°C° 1.8 mm 7 mps 764 mmHg 89%
    20:00 +5°C° 0.7 mm 7 mps 764 mmHg 88%
    21:00 +5°C° 0.7 mm 7 mps 764 mmHg 88%
    22:00 +5°C° 0.7 mm 8 mps 763 mmHg 87%
    23:00 +5°C° 1 mm 8 mps 763 mmHg 87%

    24 January, Tuesday

    Time Temperature Precipitation Wind Pressure Humidity
    00:00 +5°C° 1 mm 8 mps 763 mmHg 87%
    01:00 +5°C° 1 mm 8 mps 762 mmHg 88%
    02:00 +5°C° 1.7 mm 8 mps 762 mmHg 88%
    03:00 +5°C° 1.7 mm 7 mps 761 mmHg 88%
    04:00 +5°C° 1.7 mm 6 mps 761 mmHg 88%
    05:00 +5°C° 1.9 mm 6 mps 760 mmHg 89%
    06:00 +5°C° 1.9 mm 6 mps 760 mmHg 89%
    07:00 +6°C° 1.9 mm 5 mps 759 mmHg 89%
    08:00 +6°C° 2.2 mm 5 mps 759 mmHg 89%
    09:00 +6°C° 2.2 mm 4 mps 759 mmHg 89%
    10:00 +7°C° 2.2 mm 3 mps 759 mmHg 89%
    11:00 +7°C° 1.8 mm 3 mps 758 mmHg 89%
    12:00 +8°C° 1.8 mm 3 mps 758 mmHg 89%
    13:00 +8°C° 1.8 mm 2 mps 758 mmHg 89%
    14:00 +8°C° 0.7 mm 2 mps 758 mmHg 89%
    15:00 +8°C° 0.7 mm 2 mps 758 mmHg 89%
    16:00 +8°C° 0.7 mm 2 mps 758 mmHg 89%
    17:00 +8°C° 0.5 mm 2 mps 758 mmHg 89%
    18:00 +8°C° 0.5 mm 2 mps 758 mmHg 88%
    19:00 +8°C° 0.5 mm 2 mps 758 mmHg 87%
    20:00 +8°C° 0.2 mm 2 mps 758 mmHg 87%
    21:00 +8°C° 0.2 mm 2 mps 758 mmHg 87%
    22:00 +8°C° 0.2 mm 3 mps 758 mmHg 88%
    23:00 +8°C° 0.2 mm 2 mps 758 mmHg 88%

    25 January, Wednesday

    Time Temperature Precipitation Wind Pressure Humidity
    00:00 +8°C° 0.2 mm 2 mps 758 mmHg 88%
    01:00 +8°C° 0.2 mm 2 mps 758 mmHg 89%
    02:00 +7°C° 0.5 mm 2 mps 758 mmHg 89%
    03:00 +7°C° 0.5 mm 2 mps 758 mmHg 90%
    04:00 +7°C° 0.5 mm 2 mps 758 mmHg 90%
    05:00 +7°C° 0.1 mm 3 mps 758 mmHg 90%
    06:00 +7°C° 0.1 mm 3 mps 759 mmHg 89%
    07:00 +7°C° 0.1 mm 3 mps 759 mmHg 89%
    08:00 +8°C° 0.1 mm 3 mps 759 mmHg 85%
    09:00 +10°C° 0.1 mm 3 mps 759 mmHg 82%
    10:00 +11°C° 0.1 mm 3 mps 760 mmHg 78%
    11:00 +12°C° 0.2 mm 3 mps 760 mmHg 76%
    12:00 +12°C° 0.2 mm 3 mps 760 mmHg 73%
    13:00 +14°C° 0.2 mm 2 mps 760 mmHg 71%
    14:00 +13°C° 0.3 mm 2 mps 760 mmHg 74%
    15:00 +13°C° 0.3 mm 2 mps 760 mmHg 77%
    16:00 +12°C° 0.3 mm 2 mps 760 mmHg 81%
    17:00 +10°C° 0.2 mm 2 mps 761 mmHg 82%
    18:00 +9°C° 0.2 mm 2 mps 761 mmHg 84%
    19:00 +8°C° 0.2 mm 2 mps 761 mmHg 85%
    20:00 +8°C° 0.2 mm 3 mps 762 mmHg 85%
    21:00 +7°C° 0.2 mm 3 mps 762 mmHg 84%
    22:00 +6°C° 0.2 mm 4 mps 763 mmHg 84%
    23:00 +6°C° 0.1 mm 4 mps 763 mmHg 83%
    Show more